Lake McClure Weather Center

Moon Phase Calendar



Lake McClure Water Level
Online Cameras

 


      

Current Conditions in Mariposa
6/25/2021 12:19:47 AM

66°F
Feels Like 66
Clear
Humidity
67%
Pressure
29.97"
Wind
4.1 mph (NE)
Dew Point
55°F
UV Index
0/10 (Low)
Visibility
6 mi

Hourly Forecast

Date & Time Fri, Jun 25
12:00 AM
Fri, Jun 25
1:00 AM
Fri, Jun 25
2:00 AM
Fri, Jun 25
3:00 AM
Fri, Jun 25
4:00 AM
Fri, Jun 25
5:00 AM
Fri, Jun 25
6:00 AM
Fri, Jun 25
7:00 AM
Fri, Jun 25
8:00 AM
Fri, Jun 25
9:00 AM
Fri, Jun 25
10:00 AM
Fri, Jun 25
11:00 AM
Fri, Jun 25
12:00 PM
Fri, Jun 25
1:00 PM
Fri, Jun 25
2:00 PM
Fri, Jun 25
3:00 PM
Fri, Jun 25
4:00 PM
Fri, Jun 25
5:00 PM
Fri, Jun 25
6:00 PM
Fri, Jun 25
7:00 PM
Fri, Jun 25
8:00 PM
Fri, Jun 25
9:00 PM
Fri, Jun 25
10:00 PM
Fri, Jun 25
11:00 PM
Sat, Jun 26
12:00 AM
Sat, Jun 26
1:00 AM
Sat, Jun 26
2:00 AM
Sat, Jun 26
3:00 AM
Sat, Jun 26
4:00 AM
Sat, Jun 26
5:00 AM
Sat, Jun 26
6:00 AM
Sat, Jun 26
7:00 AM
Sat, Jun 26
8:00 AM
Sat, Jun 26
9:00 AM
Sat, Jun 26
10:00 AM
Sat, Jun 26
11:00 AM
Sat, Jun 26
12:00 PM
Sat, Jun 26
1:00 PM
Sat, Jun 26
2:00 PM
Sat, Jun 26
3:00 PM
Sat, Jun 26
4:00 PM
Sat, Jun 26
5:00 PM
Sat, Jun 26
6:00 PM
Sat, Jun 26
7:00 PM
Sat, Jun 26
8:00 PM
Sat, Jun 26
9:00 PM
Sat, Jun 26
10:00 PM
Sat, Jun 26
11:00 PM
Condition
Clear

Clear

Clear

Clear

Clear

Clear

Clear

Clear

Clear

Clear

Clear

Clear

Clear

Clear

Clear

Clear

Clear

Clear

Clear

Clear

Clear

Clear

Clear

Clear

Clear

Clear

Clear

Clear

Clear

Clear

Clear

Clear

Clear

Clear

Clear

Clear

Clear

Clear

Clear

Clear

Clear

Clear

Clear

Clear

Clear

Clear

Clear

Clear
Temperature 66°F66°F65°F64°F62°F61°F61°F66°F73°F77°F80°F84°F87°F89°F91°F92°F93°F93°F92°F90°F85°F78°F74°F71°F70°F69°F69°F68°F67°F67°F67°F73°F80°F84°F88°F91°F94°F96°F99°F101°F102°F103°F102°F101°F92°F85°F81°F79°F
Feels Like 66°F65°F64°F62°F61°F59°F59°F65°F72°F76°F79°F81°F84°F86°F87°F88°F89°F89°F88°F87°F82°F77°F73°F70°F69°F68°F67°F67°F66°F66°F66°F71°F80°F82°F84°F87°F90°F92°F95°F97°F98°F98°F98°F96°F88°F82°F80°F78°F
Cloudiness 0%0%0%0%0%0%0%0%0%0%0%0%0%0%1%1%1%2%2%2%1%1%1%1%0%0%0%0%0%0%0%0%0%0%0%0%0%0%0%0%0%0%0%0%1%0%0%0%
Visibility 6 mi6 mi6 mi6 mi6 mi6 mi6 mi6 mi6 mi6 mi6 mi6 mi6 mi6 mi6 mi6 mi6 mi6 mi6 mi6 mi6 mi6 mi6 mi6 mi6 mi6 mi6 mi6 mi6 mi6 mi6 mi6 mi6 mi6 mi6 mi6 mi6 mi6 mi6 mi6 mi6 mi6 mi6 mi6 mi6 mi6 mi6 mi6 mi
Precipitation 0%0%0%0%0%0%0%0%0%0%0%0%0%0%0%0%0%0%0%0%0%0%0%0%0%0%0%0%0%0%0%0%0%0%0%0%0%0%0%0%0%0%0%0%0%0%0%0%
Humidity 67%64%61%57%54%50%49%42%34%31%29%26%24%22%20%18%17%17%18%20%25%31%36%40%43%45%45%45%44%43%41%35%28%26%24%22%20%18%16%15%14%13%13%13%18%24%28%30%
Dew Point 55°F53°F51°F48°F46°F42°F42°F43°F43°F44°F45°F46°F46°F45°F44°F44°F43°F43°F44°F45°F45°F45°F45°F46°F47°F47°F47°F46°F45°F44°F43°F44°F44°F45°F46°F47°F47°F47°F46°F45°F44°F43°F43°F42°F43°F45°F45°F45°F
Pressure 29.97"29.97"29.97"29.94"29.94"29.94"29.97"29.97"29.97"29.97"29.94"29.94"29.91"29.88"29.88"29.85"29.83"29.83"29.8"29.8"29.83"29.85"29.88"29.88"29.88"29.88"29.88"29.88"29.88"29.88"29.88"29.88"29.88"29.85"29.85"29.85"29.83"29.8"29.77"29.74"29.71"29.71"29.68"29.68"29.71"29.71"29.74"29.74"
Wind Speed 4.1 mph4.4 mph3.6 mph3.2 mph3.1 mph3.2 mph2.8 mph1.2 mph1.9 mph4.1 mph5.3 mph5.8 mph7.4 mph8.1 mph8.4 mph8.2 mph8.5 mph9.4 mph10.2 mph9.6 mph8.7 mph7.3 mph5.6 mph4.4 mph4 mph4.1 mph4.2 mph3.8 mph3.6 mph4.1 mph3.9 mph2.4 mph2 mph4.2 mph5.4 mph6.4 mph7.1 mph7.2 mph7 mph7.4 mph8.7 mph8.9 mph9.4 mph8.2 mph5.8 mph5.1 mph5.3 mph4.9 mph
Wind
Direction
35°
NE
53°
NE
57°
ENE
47°
NE
40°
NE
37°
NE
48°
NE
51°
NE
235°
SW
249°
WSW
252°
WSW
260°
W
265°
W
272°
W
281°
W
284°
WNW
285°
WNW
288°
WNW
295°
WNW
301°
WNW
308°
NW
336°
NNW

N
20°
NNE
26°
NNE
34°
NE
42°
NE
46°
NE
30°
NNE
39°
NE
35°
NE
28°
NNE
287°
WNW
258°
WSW
257°
WSW
260°
W
267°
W
271°
W
277°
W
282°
WNW
290°
WNW
298°
WNW
301°
WNW
306°
NW
314°
NW
348°
NNW
26°
NNE
35°
NE

Daily Forecast

Date High Low Precip. Humidity
Today
Jun 25

Clear
93 °F
61 °F
0%
22%
Saturday
Jun 26

Clear
103 °F
67 °F
0%
18%
Sunday
Jun 27

Clear
108 °F
73 °F
0%
12%
Monday
Jun 28

Clear
106 °F
74 °F
8%
11%
Tuesday
Jun 29

Clear
108 °F
75 °F
0%
9%
Wednesday
Jun 30

Clouds
106 °F
74 °F
0%
11%
Thursday
Jul 1

Clouds
98 °F
68 °F
19%
16%
Friday
Jul 2

Rain
97 °F
70 °F
27%
16%
Saturday
Jul 3

Clear
104 °F
69 °F
0%
12%
Sunday
Jul 4

Rain
103 °F
68 °F
30%
15%
Monday
Jul 5

Clear
100 °F
70 °F
0%
10%
Tuesday
Jul 6

Clear
97 °F
63 °F
0%
12%
Wednesday
Jul 7

Clear
96 °F
61 °F
0%
14%
Thursday
Jul 8

Clear
96 °F
63 °F
0%
11%
Friday
Jul 9

Clear
97 °F
63 °F
0%
8%
Saturday
Jul 10

Clear
103 °F
65 °F
0%
7%

Temperature 8-14 Day Outlook



Precipitation 8-14 Day Outlook




Quick Links
Lake McClure News
Lake McClure Photos
Lake McClure Videos




About Us
Contact Us
Site Map
Search Site
Advertise With Us
   
McClure.LakesOnline.com
THE LAKE MCCLURE WEBSITE

Copyright 2021, Lakes Online
Privacy    |    Legal